{"data":{"norad_id":59394,"epoch":"2026-09-21T18:04:33.672864Z","epoch_age_seconds":56822,"freshness":"FRESH","line1":"1 59394U 24062W   26264.75316751 -.00000974  00000+0 -17715-4 0  9995","line2":"2 59394  53.1611  61.8414 0001205 100.9087 259.2051 15.34383481139722","mean_motion":15.34383481,"eccentricity":0.0001205,"inclination_deg":53.1611,"raan_deg":61.8414,"arg_perigee_deg":100.9087,"mean_anomaly_deg":259.2051,"bstar":-1.7715e-5,"rev_number":13972,"period_min":93.848768435744,"perigee_km":461.92801143151,"apogee_km":463.57666576211,"semimajor_km":6840.8893385968,"source":"CELESTRAK","updated_at":"2026-09-22T09:00:48.912137Z"}}